Language: 


Des rapports , des résumés tant et plus, au choix de chacun....


Données statistiques de la station
Quotidien Rapport Octobre 29, 2017 Unités:  Anglais    Métrique   les deux
« Précédent Jour
Suivant Jour »
Quotidien Hebdomadaire Mensuel Annuel Actuel
  Haut: Bas: Moyen:
Température: 58.6 °F 32 °F 53.1 °F
Pt de rosée: 57.2 °F 41 °F 48.9 °F
Humidité: 98 % 0 % 85 %
Vitesse du vent: 19 mph 0 mph 3.7 mph
Rafales: 19.7 mph - -
Vent:- - WSW
Pression: 30.3 in 0 in -
Précipitation: 0.12 in    
Historical Graphs
 
 
Données statistiques pour Octobre 29, 2017
Heure Température Point de rosée Pression Vent Vitesse du vent Refales Humidité Pluie (taux horaire)
00:02 56.8 °F 51.8 °F 30.1 in WSW 9.8 mph 9.8 mph 83 % 0 in
00:07 56.8 °F 51.8 °F 30.1 in WSW 9.8 mph 9.8 mph 83 % 0 in
00:13 56.8 °F 51.8 °F 30.1 in WSW 9.8 mph 9.8 mph 83 % 0 in
00:18 56.8 °F 51.8 °F 30.1 in WSW 9.8 mph 9.8 mph 83 % 0 in
00:23 56.8 °F 51.8 °F 30.1 in WSW 9.8 mph 9.8 mph 83 % 0 in
00:28 56.8 °F 51.8 °F 30.1 in WSW 9.8 mph 9.8 mph 83 % 0 in
00:33 56.8 °F 51.8 °F 30.1 in WSW 9.8 mph 9.8 mph 83 % 0 in
00:38 56.8 °F 51.8 °F 30.1 in WSW 9.8 mph 9.8 mph 83 % 0 in
00:43 56.8 °F 51.8 °F 30.1 in WSW 9.8 mph 9.8 mph 83 % 0 in
00:48 56.8 °F 51.8 °F 30.1 in WSW 9.8 mph 9.8 mph 83 % 0 in
00:53 56.8 °F 51.8 °F 30.1 in WSW 9.8 mph 9.8 mph 83 % 0 in
00:58 56.8 °F 51.8 °F 30.1 in WSW 9.8 mph 9.8 mph 83 % 0 in
01:03 56.8 °F 51.8 °F 30.1 in WSW 9.8 mph 9.8 mph 83 % 0 in
01:08 56.8 °F 51.8 °F 30.1 in WSW 9.8 mph 9.8 mph 83 % 0 in
01:13 56.8 °F 51.8 °F 30.1 in WSW 9.8 mph 9.8 mph 83 % 0 in
01:18 56.8 °F 51.8 °F 30.1 in WSW 9.8 mph 9.8 mph 83 % 0 in
01:23 56.8 °F 51.8 °F 30.1 in WSW 9.8 mph 9.8 mph 83 % 0 in
01:28 56.8 °F 51.8 °F 30.1 in WSW 9.8 mph 9.8 mph 83 % 0 in
01:33 56.8 °F 51.8 °F 30.1 in WSW 9.8 mph 9.8 mph 83 % 0 in
01:38 56.8 °F 51.8 °F 30.1 in WSW 9.8 mph 9.8 mph 83 % 0 in
01:43 56.8 °F 51.8 °F 30.1 in WSW 9.8 mph 9.8 mph 83 % 0 in
01:48 56.8 °F 51.8 °F 30.1 in WSW 9.8 mph 9.8 mph 83 % 0 in
01:53 56.8 °F 51.8 °F 30.1 in WSW 9.8 mph 9.8 mph 83 % 0 in
01:59 56.8 °F 51.8 °F 30.1 in WSW 9.8 mph 9.8 mph 83 % 0 in
02:04 56.8 °F 51.8 °F 30.1 in WSW 9.8 mph 9.8 mph 83 % 0 in
02:09 56.8 °F 51.8 °F 30.1 in WSW 9.8 mph 9.8 mph 83 % 0 in
02:14 56.8 °F 51.8 °F 30.1 in WSW 9.8 mph 9.8 mph 83 % 0 in
02:19 56.8 °F 51.8 °F 30.1 in WSW 9.8 mph 9.8 mph 83 % 0 in
02:24 56.8 °F 51.8 °F 30.1 in WSW 9.8 mph 9.8 mph 83 % 0 in
02:29 56.8 °F 51.8 °F 30.1 in WSW 9.8 mph 9.8 mph 83 % 0 in
02:34 56.8 °F 51.8 °F 30.1 in WSW 9.8 mph 9.8 mph 83 % 0 in
02:39 56.8 °F 51.8 °F 30.1 in WSW 9.8 mph 9.8 mph 83 % 0 in
02:44 56.8 °F 51.8 °F 30.1 in WSW 9.8 mph 9.8 mph 83 % 0 in
02:49 56.8 °F 51.8 °F 30.1 in WSW 9.8 mph 9.8 mph 83 % 0 in
02:54 56.8 °F 51.8 °F 30.1 in WSW 9.8 mph 9.8 mph 83 % 0 in
02:59 56.8 °F 51.8 °F 30.1 in WSW 9.8 mph 9.8 mph 83 % 0 in
02:05 56.8 °F 51.8 °F 30.1 in WSW 9.8 mph 9.8 mph 83 % 0 in
02:10 56.8 °F 51.8 °F 30.1 in WSW 9.8 mph 9.8 mph 83 % 0 in
02:15 56.8 °F 51.8 °F 30.1 in WSW 9.8 mph 9.8 mph 83 % 0 in
02:20 56.8 °F 51.8 °F 30.1 in WSW 9.8 mph 9.8 mph 83 % 0 in
02:25 56.8 °F 51.8 °F 30.1 in WSW 9.8 mph 9.8 mph 83 % 0 in
02:30 56.8 °F 51.8 °F 30.1 in WSW 9.8 mph 9.8 mph 83 % 0 in
02:35 56.8 °F 51.8 °F 30.1 in WSW 9.8 mph 9.8 mph 83 % 0 in
02:41 56.8 °F 51.8 °F 30.1 in WSW 9.8 mph 9.8 mph 83 % 0 in
02:46 56.8 °F 51.8 °F 30.1 in WSW 9.8 mph 9.8 mph 83 % 0 in
02:51 56.8 °F 51.8 °F 30.1 in WSW 9.8 mph 9.8 mph 83 % 0 in
02:56 56.8 °F 51.8 °F 30.1 in WSW 9.8 mph 9.8 mph 83 % 0 in
03:01 32 °F 51.8 °F 0 in West 9.4 mph 9.8 mph 0 % 0 in
03:06 56.7 °F 55.4 °F 30 in West 10.7 mph 13.6 mph 93 % 0 in
03:15 56.7 °F 55.4 °F 30 in West 11 mph 13.2 mph 93 % 0 in
03:20 56.7 °F 55.4 °F 30 in WSW 10.3 mph 15.2 mph 93 % 0 in
03:25 56.7 °F 55.4 °F 30 in WSW 10.7 mph 15.2 mph 93 % 0 in
03:30 56.7 °F 55.4 °F 29.9 in West 13.2 mph 14.5 mph 93 % 0 in
03:35 56.7 °F 55.4 °F 29.9 in WSW 15.2 mph 19.7 mph 93 % 0 in
03:40 56.8 °F 55.4 °F 30 in West 14.3 mph 19.7 mph 93 % 0 in
03:45 56.8 °F 55.4 °F 30 in West 17 mph 17.7 mph 92 % 0 in
03:50 57 °F 55.4 °F 30 in WSW 9.6 mph 17 mph 92 % 0 in
03:55 57 °F 55.4 °F 30 in WSW 12.8 mph 17 mph 92 % 0 in
04:05 57 °F 55.4 °F 30 in WSW 8.5 mph 14.8 mph 92 % 0 in
04:11 57 °F 55.4 °F 30 in WNW 10.5 mph 14.8 mph 92 % 0 in
04:20 57 °F 55.4 °F 30 in WNW 12.5 mph 13 mph 92 % 0 in
04:21 57 °F 55.4 °F 30 in WNW 12.5 mph 13 mph 92 % 0 in
04:25 57 °F 55.4 °F 30 in WSW 12.3 mph 13 mph 93 % 0 in
04:28 57 °F 55.4 °F 30 in WNW 11.9 mph 12.5 mph 93 % 0 in
04:34 57 °F 55.4 °F 30 in West 13 mph 13 mph 93 % 0 in
04:39 57 °F 55.4 °F 30 in West 6.3 mph 18.8 mph 94 % 0 in
04:44 56.8 °F 55.4 °F 30 in WNW 4.3 mph 18.8 mph 94 % 0 in
04:49 56.8 °F 55.4 °F 30 in WSW 10.1 mph 14.1 mph 95 % 0 in
04:54 56.7 °F 55.4 °F 30 in West 10.5 mph 14.1 mph 95 % 0 in
04:59 56.7 °F 55.4 °F 29.9 in WNW 9.8 mph 16.1 mph 96 % 0 in
05:04 56.7 °F 55.4 °F 29.9 in WSW 19 mph 19 mph 96 % 0 in
05:09 56.7 °F 55.4 °F 29.9 in West 13.2 mph 19 mph 96 % 0 in
05:14 56.7 °F 55.4 °F 30 in West 8.5 mph 13.2 mph 96 % 0 in
05:19 56.8 °F 55.4 °F 30 in West 7.8 mph 14.3 mph 96 % 0 in
05:24 56.8 °F 55.4 °F 30 in WSW 12.3 mph 14.3 mph 96 % 0 in
05:29 56.8 °F 55.4 °F 29.9 in WSW 9.2 mph 16.3 mph 96 % 0 in
05:34 56.8 °F 55.4 °F 29.9 in West 10.5 mph 16.3 mph 96 % 0 in
05:39 56.8 °F 55.4 °F 29.9 in West 7.6 mph 12.8 mph 96 % 0 in
05:44 56.8 °F 55.4 °F 30 in West 11 mph 11 mph 96 % 0 in
05:49 56.8 °F 55.4 °F 30 in West 8.7 mph 11 mph 96 % 0 in
05:54 56.8 °F 55.4 °F 30 in West 8.5 mph 11 mph 96 % 0 in
05:59 56.8 °F 55.4 °F 29.9 in SSW 13.2 mph 13.2 mph 97 % 0 in
06:04 56.8 °F 55.4 °F 29.9 in SSW 13.2 mph 13.2 mph 97 % 0 in
06:09 56.8 °F 55.4 °F 29.9 in West 10.7 mph 13.2 mph 97 % 0 in
06:14 56.8 °F 55.4 °F 29.9 in SSW 13 mph 13 mph 97 % 0 in
06:19 56.8 °F 55.4 °F 29.9 in West 7.4 mph 13 mph 97 % 0 in
06:24 56.8 °F 55.4 °F 29.9 in West 7.4 mph 13 mph 97 % 0 in
06:29 56.8 °F 55.4 °F 29.9 in West 10.5 mph 14.1 mph 97 % 0 in
06:34 56.8 °F 55.4 °F 29.9 in West 10.5 mph 14.1 mph 97 % 0 in
06:39 56.8 °F 55.4 °F 29.9 in West 10.5 mph 10.5 mph 97 % 0 in
06:44 56.8 °F 55.4 °F 29.9 in West 10.5 mph 10.5 mph 97 % 0 in
06:50 56.8 °F 55.4 °F 29.9 in West 8.5 mph 10.5 mph 97 % 0 in
06:55 56.8 °F 55.4 °F 29.9 in WSW 7.6 mph 13 mph 97 % 0 in
07:00 56.8 °F 55.4 °F 30 in West 6 mph 13.2 mph 97 % 0 in
07:05 56.8 °F 55.4 °F 30 in WNW 3.1 mph 13.2 mph 97 % 0 in
07:10 56.8 °F 55.4 °F 30 in WSW 9.4 mph 11 mph 97 % 0 in
07:15 56.8 °F 57.2 °F 30 in West 8.5 mph 11 mph 98 % 0 in
07:20 56.8 °F 57.2 °F 30 in NNW 6.3 mph 12.3 mph 98 % 0 in
07:25 56.5 °F 55.4 °F 30 in North 8.5 mph 12.3 mph 97 % 0 in
07:30 55.9 °F 55.4 °F 29.9 in NNE 7.2 mph 11 mph 96 % 0.05 in
07:35 55.6 °F 55.4 °F 29.9 in NNW 15.4 mph 15.4 mph 96 % 0.07 in
07:40 55.2 °F 55.4 °F 29.9 in NW 14.3 mph 15.4 mph 97 % 0.07 in
07:45 55 °F 55.4 °F 30 in North 2.7 mph 15.4 mph 97 % 0.09 in
07:50 54.7 °F 55.4 °F 30 in West 4.5 mph 14.3 mph 98 % 0.1 in
07:55 54.7 °F 55.4 °F 30 in NNE 7.4 mph 10.5 mph 98 % 0.1 in
08:00 54.5 °F 55.4 °F 30 in NNE 7.4 mph 7.4 mph 98 % 0.1 in
08:05 54.3 °F 55.4 °F 30 in NNE 7.4 mph 7.4 mph 98 % 0.11 in
08:10 54.3 °F 55.4 °F 30 in NNE 7.4 mph 7.4 mph 98 % 0.11 in
08:15 54.1 °F 55.4 °F 30 in NNE 7.4 mph 7.4 mph 98 % 0.11 in
08:20 54.1 °F 55.4 °F 30 in NNE 7.4 mph 7.4 mph 98 % 0.11 in
08:25 54.1 °F 55.4 °F 30 in NNE 7.4 mph 7.4 mph 98 % 0.11 in
08:30 54.1 °F 55.4 °F 30 in NNE 7.4 mph 7.4 mph 98 % 0.06 in
08:35 54.1 °F 55.4 °F 30 in North 4.7 mph 4.7 mph 98 % 0.03 in
08:40 54.1 °F 55.4 °F 30 in Calm   4.7 mph 98 % 0.02 in
08:46 54.1 °F 55.4 °F 30 in Calm   4.7 mph 98 % 0.02 in
08:51 54.1 °F 55.4 °F 30 in Calm     98 % 0.01 in
08:56 54.1 °F 55.4 °F 30 in Calm     98 % 0.01 in
09:01 54 °F 53.6 °F 30 in Calm     98 % 0.01 in
09:06 54 °F 53.6 °F 30 in Calm     98 % 0 in
09:11 54 °F 53.6 °F 30 in Calm     97 % 0 in
09:16 53.8 °F 53.6 °F 30 in Calm     97 % 0 in
09:21 53.8 °F 53.6 °F 30 in Calm     96 % 0 in
09:26 53.8 °F 53.6 °F 30 in Calm     96 % 0 in
09:32 54 °F 53.6 °F 30 in Calm     95 % 0 in
09:37 54 °F 53.6 °F 30 in Calm     95 % 0 in
09:42 54 °F 53.6 °F 30.1 in Calm     95 % 0 in
09:47 54 °F 51.8 °F 30.1 in Calm     94 % 0 in
09:57 54 °F 51.8 °F 30.1 in Calm     92 % 0 in
10:02 54 °F 51.8 °F 30.1 in Calm     92 % 0 in
10:07 54 °F 51.8 °F 30.1 in Calm     92 % 0 in
10:12 54.1 °F 51.8 °F 30.1 in Calm     92 % 0 in
10:17 54.1 °F 51.8 °F 30.1 in Calm     91 % 0 in
10:22 54.3 °F 51.8 °F 30.1 in Calm     90 % 0 in
10:27 54.3 °F 51.8 °F 30.1 in Calm     90 % 0 in
10:32 54.3 °F 51.8 °F 30.1 in Calm     90 % 0 in
10:37 54.1 °F 51.8 °F 30.1 in Calm     89 % 0 in
10:42 54.3 °F 51.8 °F 30.1 in Calm     89 % 0 in
10:47 54.3 °F 51.8 °F 30.1 in Calm     88 % 0 in
10:52 54.5 °F 51.8 °F 30.1 in Calm     89 % 0 in
10:57 54.7 °F 51.8 °F 30.1 in Calm     88 % 0 in
11:02 54.9 °F 51.8 °F 30.1 in Calm     87 % 0 in
11:07 55 °F 51.8 °F 30.1 in Calm     85 % 0 in
11:11 55 °F 51.8 °F 30.1 in Calm     84 % 0 in
11:16 55 °F 50 °F 30.1 in Calm     82 % 0 in
11:26 55.2 °F 50 °F 30.1 in Calm     80 % 0 in
11:31 55.4 °F 48.2 °F 30.1 in Calm     78 % 0 in
11:36 55.4 °F 48.2 °F 30.1 in Calm     74 % 0 in
11:41 55.4 °F 48.2 °F 30.1 in Calm     73 % 0 in
11:46 55.6 °F 46.4 °F 30.1 in Calm     69 % 0 in
11:51 55.6 °F 46.4 °F 30.1 in Calm     68 % 0 in
11:56 55.8 °F 46.4 °F 30.1 in Calm     67 % 0 in
12:01 55.9 °F 46.4 °F 30.1 in Calm     69 % 0 in
12:06 55.9 °F 44.6 °F 30.1 in Calm     64 % 0 in
12:11 55.9 °F 44.6 °F 30.1 in Calm     64 % 0 in
12:16 55.9 °F 44.6 °F 30.1 in Calm     63 % 0 in
12:21 55.9 °F 42.8 °F 30.1 in Calm     61 % 0 in
12:26 56.1 °F 42.8 °F 30.1 in Calm     62 % 0 in
12:31 56.3 °F 44.6 °F 30.1 in Calm     62 % 0 in
12:36 56.3 °F 44.6 °F 30.1 in Calm     63 % 0 in
12:42 56.3 °F 46.4 °F 30.1 in Calm     65 % 0 in
12:47 55.9 °F 44.6 °F 30.1 in Calm     66 % 0 in
12:52 55.2 °F 44.6 °F 30.1 in Calm     65 % 0 in
12:57 55.2 °F 44.6 °F 30.1 in Calm     65 % 0 in
13:02 56.5 °F 42.8 °F 30.1 in Calm     61 % 0 in
13:07 56.5 °F 42.8 °F 30.1 in Calm     60 % 0 in
13:12 56.7 °F 44.6 °F 30.1 in Calm     62 % 0 in
13:17 56.8 °F 44.6 °F 30.1 in Calm     62 % 0 in
13:22 57.4 °F 42.8 °F 30.1 in Calm     56 % 0 in
13:27 57.7 °F 42.8 °F 30.1 in Calm     54 % 0 in
13:32 57.9 °F 41 °F 30.1 in Calm     53 % 0 in
13:37 57.6 °F 41 °F 30.1 in Calm     52 % 0 in
13:42 57.7 °F 42.8 °F 30.2 in Calm     54 % 0 in
13:47 57.9 °F 41 °F 30.2 in Calm     53 % 0 in
13:52 58.3 °F 42.8 °F 30.2 in Calm     53 % 0 in
13:57 58.6 °F 42.8 °F 30.2 in Calm     54 % 0 in
14:02 57.6 °F 41 °F 30.2 in Calm     53 % 0 in
14:07 56.3 °F 44.6 °F 30.2 in Calm     62 % 0 in
14:12 55.8 °F 44.6 °F 30.2 in Calm     65 % 0 in
14:17 55.4 °F 44.6 °F 30.2 in Calm     65 % 0 in
14:22 55.4 °F 44.6 °F 30.2 in Calm     65 % 0 in
14:27 54.9 °F 42.8 °F 30.2 in Calm     64 % 0 in
14:32 55 °F 44.6 °F 30.2 in Calm     64 % 0 in
14:37 55.9 °F 42.8 °F 30.2 in Calm     62 % 0 in
14:42 56.5 °F 42.8 °F 30.2 in Calm     61 % 0 in
14:47 56.1 °F 42.8 °F 30.2 in Calm     58 % 0 in
14:52 57 °F 44.6 °F 30.2 in Calm     62 % 0 in
14:57 57.2 °F 44.6 °F 30.2 in Calm     61 % 0 in
15:02 56.7 °F 48.2 °F 30.2 in Calm     70 % 0 in
15:07 55.8 °F 46.4 °F 30.2 in Calm     70 % 0 in
15:12 55.4 °F 46.4 °F 30.2 in Calm     71 % 0 in
15:17 54.7 °F 46.4 °F 30.2 in Calm     71 % 0 in
15:22 54.9 °F 48.2 °F 30.2 in Calm     74 % 0 in
15:27 54 °F 46.4 °F 30.1 in Calm     75 % 0 in
15:32 52.7 °F 48.2 °F 30.1 in Calm     80 % 0 in
15:37 52.3 °F 48.2 °F 30.1 in Calm     83 % 0 in
15:42 53.1 °F 48.2 °F 30.1 in Calm     85 % 0 in
15:47 53.2 °F 48.2 °F 30.1 in Calm     85 % 0 in
15:52 53.4 °F 48.2 °F 30.1 in Calm     84 % 0 in
15:57 53.4 °F 48.2 °F 30.2 in Calm     83 % 0 in
16:02 53.4 °F 48.2 °F 30.2 in Calm     83 % 0 in
16:07 53.2 °F 48.2 °F 30.2 in Calm     82 % 0 in
16:12 53.1 °F 48.2 °F 30.2 in Calm     81 % 0 in
16:17 53.1 °F 48.2 °F 30.2 in Calm     80 % 0 in
16:22 52.9 °F 46.4 °F 30.2 in Calm     75 % 0 in
16:27 52.5 °F 44.6 °F 30.2 in Calm     76 % 0 in
16:32 52.2 °F 46.4 °F 30.2 in Calm     77 % 0 in
16:37 51.6 °F 44.6 °F 30.2 in Calm     76 % 0 in
16:42 51.4 °F 44.6 °F 30.2 in Calm     77 % 0.01 in
16:47 51.1 °F 46.4 °F 30.2 in Calm     81 % 0.01 in
16:52 50.9 °F 46.4 °F 30.2 in Calm     82 % 0.01 in
16:57 50.5 °F 46.4 °F 30.2 in Calm     83 % 0.01 in
17:02 50.5 °F 46.4 °F 30.2 in Calm     84 % 0.01 in
17:07 50.5 °F 46.4 °F 30.2 in Calm     84 % 0.01 in
17:12 50.4 °F 46.4 °F 30.2 in Calm     84 % 0.01 in
17:17 50.2 °F 46.4 °F 30.2 in Calm     84 % 0.01 in
17:22 50.2 °F 46.4 °F 30.2 in Calm     84 % 0.01 in
17:28 50 °F 46.4 °F 30.2 in Calm     84 % 0.01 in
17:33 49.8 °F 46.4 °F 30.2 in Calm     84 % 0.01 in
17:38 49.6 °F 44.6 °F 30.2 in Calm     84 % 0.01 in
17:43 49.6 °F 44.6 °F 30.2 in Calm     84 % 0 in
17:48 49.6 °F 44.6 °F 30.2 in Calm     84 % 0 in
17:53 49.6 °F 46.4 °F 30.2 in Calm     85 % 0 in
17:58 49.5 °F 46.4 °F 30.2 in Calm     86 % 0 in
18:03 49.3 °F 46.4 °F 30.2 in Calm     86 % 0 in
18:08 49.1 °F 46.4 °F 30.2 in Calm     86 % 0 in
18:09 49.1 °F 46.4 °F 30.2 in Calm     86 % 0 in
18:14 49.1 °F 46.4 °F 30.2 in Calm     86 % 0 in
18:19 48.9 °F 44.6 °F 30.2 in Calm     85 % 0 in
18:24 49.1 °F 44.6 °F 30.2 in Calm     84 % 0 in
18:29 49.3 °F 44.6 °F 30.2 in Calm     82 % 0 in
18:30 49.3 °F 44.6 °F 30.2 in Calm     82 % 0 in
18:35 49.3 °F 44.6 °F 30.2 in Calm     82 % 0 in
18:40 49.1 °F 44.6 °F 30.2 in Calm     83 % 0 in
18:45 48.9 °F 44.6 °F 30.2 in Calm     83 % 0 in
18:50 48.7 °F 44.6 °F 30.2 in Calm     83 % 0 in
18:55 48.6 °F 44.6 °F 30.2 in Calm     82 % 0 in
19:05 48.4 °F 42.8 °F 30.2 in Calm     82 % 0 in
19:10 48.2 °F 42.8 °F 30.2 in Calm     82 % 0 in
19:15 48 °F 42.8 °F 30.2 in Calm     82 % 0 in
19:20 47.7 °F 42.8 °F 30.2 in Calm     82 % 0 in
19:25 47.5 °F 42.8 °F 30.2 in Calm     83 % 0 in
19:30 47.3 °F 42.8 °F 30.2 in Calm     83 % 0 in
19:35 46.9 °F 42.8 °F 30.2 in Calm     83 % 0 in
19:40 46.8 °F 42.8 °F 30.2 in Calm     83 % 0 in
19:45 46.6 °F 42.8 °F 30.2 in Calm     84 % 0 in
19:50 46.4 °F 42.8 °F 30.2 in Calm     84 % 0 in
19:55 46.4 °F 42.8 °F 30.2 in Calm     85 % 0 in
20:00 46.4 °F 42.8 °F 30.2 in Calm     86 % 0 in
20:05 46.2 °F 42.8 °F 30.2 in Calm     87 % 0 in
20:10 46.2 °F 42.8 °F 30.2 in Calm     87 % 0 in
20:15 46 °F 42.8 °F 30.2 in Calm     87 % 0 in
20:20 46 °F 42.8 °F 30.2 in Calm     87 % 0 in
20:25 46.2 °F 42.8 °F 30.2 in Calm     88 % 0 in
20:30 46.2 °F 42.8 °F 30.2 in Calm     89 % 0 in
20:35 46.2 °F 42.8 °F 30.2 in Calm     89 % 0 in
20:40 46.2 °F 42.8 °F 30.2 in Calm     89 % 0 in
20:45 46.2 °F 42.8 °F 30.2 in Calm     89 % 0 in
20:50 46.4 °F 44.6 °F 30.2 in Calm     89 % 0 in
20:55 46.2 °F 42.8 °F 30.2 in Calm     89 % 0 in
21:00 46.2 °F 42.8 °F 30.2 in Calm     89 % 0 in
21:05 46.2 °F 42.8 °F 30.2 in Calm     88 % 0 in
21:11 46 °F 42.8 °F 30.2 in Calm     88 % 0 in
21:15 45.5 °F 42.8 °F 30.2 in Calm     87 % 0 in
21:20 45.1 °F 42.8 °F 30.2 in Calm     87 % 0 in
21:25 44.6 °F 41 °F 30.3 in Calm     87 % 0 in
21:31 44.2 °F 41 °F 30.3 in Calm     88 % 0 in
21:36 43.9 °F 41 °F 30.3 in Calm     88 % 0 in
21:41 43.5 °F 41 °F 30.3 in Calm     88 % 0 in
21:46 43.3 °F 41 °F 30.3 in Calm     89 % 0 in
21:51 42.8 °F 41 °F 30.3 in Calm     89 % 0 in
21:56 42.8 °F 41 °F 30.3 in Calm     89 % 0 in
22:01 42.6 °F 41 °F 30.3 in Calm     91 % 0 in
22:06 42.8 °F 41 °F 30.3 in Calm     91 % 0 in
22:11 43 °F 41 °F 30.3 in Calm     92 % 0 in
22:16 43 °F 41 °F 30.3 in Calm     93 % 0 in
22:21 43 °F 41 °F 30.3 in Calm     93 % 0 in
22:26 43.2 °F 42.8 °F 30.3 in Calm     93 % 0 in
22:31 43.7 °F 42.8 °F 30.3 in Calm     95 % 0 in
22:36 44.1 °F 42.8 °F 30.3 in Calm     95 % 0 in
22:41 44.2 °F 42.8 °F 30.3 in Calm     95 % 0 in
22:46 44.6 °F 42.8 °F 30.3 in Calm     95 % 0 in
22:51 45 °F 44.6 °F 30.3 in Calm     96 % 0 in
22:56 45.3 °F 44.6 °F 30.3 in Calm     96 % 0 in
23:02 45.5 °F 44.6 °F 30.3 in Calm     95 % 0 in
23:07 45.9 °F 44.6 °F 30.3 in Calm     95 % 0 in
23:12 46 °F 44.6 °F 30.3 in Calm     95 % 0 in
23:17 46.2 °F 44.6 °F 30.3 in Calm     95 % 0 in
23:22 46.4 °F 44.6 °F 30.3 in Calm     94 % 0 in
23:27 46.4 °F 44.6 °F 30.3 in Calm     94 % 0 in
23:32 46.4 °F 44.6 °F 30.3 in Calm     94 % 0 in
23:37 46.2 °F 44.6 °F 30.3 in Calm     94 % 0 in
23:42 46.4 °F 44.6 °F 30.2 in Calm     94 % 0 in
23:47 46.6 °F 44.6 °F 30.2 in Calm     94 % 0 in
23:52 46.8 °F 44.6 °F 30.2 in Calm     94 % 0 in
23:57 46.8 °F 44.6 °F 30.3 in Calm     94 % 0 in
Le Gheer Warneton
Courtoisie de Weather Underground - 2.25 mb

Mise a jour : 16-12-17 15:46:11
Généré par Cumulus 1.9.4 (1099)